{"data":{"norad_id":63887,"epoch":"2026-05-25T02:35:05.356032Z","epoch_age_seconds":61872,"freshness":"FRESH","line1":"1 63887U 25094Z   26145.10770088  .00010604  00000+0  89464-3 0  9995","line2":"2 63887  70.0016  41.6249 0002116 287.4094  72.6834 14.98352214 58651","mean_motion":14.98352214,"eccentricity":0.0002116,"inclination_deg":70.0016,"raan_deg":41.6249,"arg_perigee_deg":287.4094,"mean_anomaly_deg":72.6834,"bstar":0.00089464,"rev_number":5865,"period_min":96.10557427988,"perigee_km":570.51655055051,"apogee_km":573.45784311061,"semimajor_km":6950.1241968306,"source":"CELESTRAK","updated_at":"2026-05-25T13:38:20.174099Z"}}